www.pogodaiklimat.ru

Погода и климат >> Архив погоды >> Аргентина >> Las Lomitas


ПОГОДА в Las Lomitas

  • Прогноз погоды в Las Lomitas
  • Монитор погоды в Las Lomitas
  • Климат города

АРХИВ ПОГОДЫ в Las Lomitas

Время (UTC), дата Ветер
(напр.,м/с)
 
Видим.   Явления Облачность Т
(С)
Тd
(С)
f
(%)
Тe
(С)
Тes
(С)
Комфортность P
(гПа)
Po
(гПа)
Тmin
(С)
Tmax
(С)
R
(мм)
R24
(мм)
S
(см)
15 9.07 Ю 2 20 км 9/9 600 м
[Cu hum]
+12.6 +6.8 68 +12 +13 1036.9 1020.9
18 9.07 Ю 3 20 км 8/8 1200 м
[Sc]
+15.0 +4.9 51 +15 +16 1031.7 1015.8
21 9.07 Ю 1 20 км 6/0
[Ac As]
+15.0 +3.8 47 +16 +17 1030.1 1014.2
00 10.07 штиль 0 20 км 4/0
[Ac As]
+8.0 +5.3 83 +7 +7 1031.5 1015.4 +8.0
09 10.07 штиль 0 20 км ясно +3.0 +2.0 93 +2 +2 1030.0 1014.0
12 10.07 штиль 0 20 км ясно +5.0 +3.6 91 +4 +6 1032.0 1015.7 +1.0
15 10.07 СВ 1 20 км 3/3 1500 м
[Cu hum]
+14.8 +4.1 49 +15 +23 1031.0 1015.2
18 10.07 В 1 20 км 3/0
[Ci fib]
+17.7 +3.2 38 +19 +27 1026.8 1011.0
21 10.07 В 1 20 км 4/0
[Ci fib]
+16.0 +3.5 43 +18 +18 1025.0 1009.0
00 11.07 штиль 0 20 км ясно +9.0 +4.5 73 +8 +8 1025.2 1009.2 +5.0
09 11.07 штиль 0 20 км ясно +4.4 +2.9 90 +3 +3 1022.8 1006.9
12 11.07 В 1 20 км 6/0
[Cs]
+5.2 +3.8 91 +5 +7 1024.1 1008.1 +4.0
15 11.07 СВ 2 20 км 6/0
[Cs]
+15.6 +4.6 48 +16 +25 1023.8 1008.1
18 11.07 штиль 0 20 км 8/0
[Cs]
+19.0 +4.6 39 +19 +28 1022.8 1007.0
21 11.07 штиль 0 20 км 8/0
[Cs]
+17.2 +4.7 44 +17 +17 1021.6 1005.8
00 12.07 штиль 0 20 км ясно +11.8 +4.9 63 +11 +11 1024.2 1008.2 +5.2
09 12.07 штиль 0 20 км 6/0
[Ci fib]
+11.2 +7.9 80 +11 +11 1020.0 1004.5
12 12.07 штиль 0 20 км 5/0
[Ci fib]
+11.0 +8.2 83 +10 +12 1021.3 1005.6 +10.0
15 12.07 штиль 0 20 км 5/0
[Ci fib]
+21.7 +6.6 38 +22 +34 комфорт 1020.6 1005.0
18 12.07 СВ 1 20 км 5/5
[Cu med, cong Ac As]
+25.2 +4.2 26 +25 +29 комфорт 1017.6 1002.4
21 12.07 СВ 1 20 км 5/0
[Cs]
+22.2 +5.1 33 +23 +23 комфорт 1016.4 1001.0
00 13.07 штиль 0 20 км 3/0
[Ci fib]
+16.2 +8.9 62 +16 +16 1018.0 1002.4 +11.0
09 13.07 штиль 0 20 км ясно +9.0 +6.9 87 +8 +8 1019.1 1003.6
12 13.07 штиль 0 20 км 4/0
[Ci]
+12.4 +8.8 79 +12 +14 1020.5 1004.9 +9.0
15 13.07 ЮВ 1 20 км 3/0
[Ci]
+24.0 +4.5 28 +24 +34 комфорт 1019.9 1004.6
18 13.07 СВ 1 20 км 4/0
[Ci]
+28.0 +10.5 34 +29 +37 жарко 1014.0 998.8
21 13.07 СВ 1 20 км 3/0
[Ci fib]
+25.4 +14.5 51 +28 +28 жарко 1013.4 998.1
00 14.07 В 1 20 км ясно +19.4 +11.5 60 +22 +22 комфорт 1014.4 998.9 +12.4
09 14.07 СВ 1 20 км ясно +14.2 +12.8 91 +14 +14 1010.8 995.7
12 14.07 СВ 1 20 км ясно +16.8 +12.1 74 +18 +19 1010.9 995.7 +14.2
15 14.07 СВ 3 20 км ясно +28.2 +15.3 45 +31 +39 душно 1010.4 995.4
18 14.07 СВ 3 20 км ясно +32.0 +15.0 36 +34 +40 душно 1009.0 994.1
21 14.07 СВ 2 20 км ясно +30.2 +15.1 40 +33 +33 душно 1007.7 992.8
00 15.07 СВ 1 20 км ясно +24.2 +15.0 56 +27 +27 жарко 1008.8 993.7 +16.8
09 15.07 СВ 1 20 км ясно +24.2 +15.9 60 +27 +27 жарко 1007.6 992.8
12 15.07 СВ 1 20 км 4/0
[Ac trans]
+23.0 +16.5 67 +28 +29 душно 1010.3 995.3 +21.0
15 15.07 СВ 2 20 км 8/0
[Ac trans]
+28.0 +17.3 52 +32 +37 душно 1010.4 995.6
18 15.07 СВ 1 20 км 9/0
[Ac As]
+30.0 +18.7 51 +35 +38 очень
душно
1006.7 992.0
21 15.07 ЮЗ 1 20 км 9/0
[Ac As]
+28.3 +19.3 58 +34 +34 очень
душно
1007.3 992.4
00 16.07 ЮВ 1 20 км 6/0
[Ac As]
+25.4 +19.3 69 +31 +31 очень
душно
1009.9 995.0 +23.0
09 16.07 ЮЗ 3 20 км 6/0
[Ac trans]
+17.8 +11.7 67 +18 +18 1013.3 998.2

 

Местоположение метеостанции Las Lomitas (Аргентина): широта -24.70 долгота -60.58 высота над уровнем моря 130 м.

В архиве по умолчанию представлена погода в Las Lomitas за последнюю неделю. Архивные данные за месяц целиком и за предыдущие месяцы, начиная с января 2011 года, Вы можете получить, выбрав интересующий диапазон дат из раскрывающегося списка и нажав кнопку "Ввод!".


*Определитесь, кто Вы:
робот инопланетянин человек

Внимание! Время в таблицах - всемирное. Для получения местного времени необходимо прибавить поправку, которая в Las Lomitas равна -3 ч.

Смотрите также архив погоды в соседних городах и на ближайших метеорологических станциях:

Погода в Gral. Bruguez (Парагвай) (177 км)
Погода в Pozo Colorado (Парагвай) (225 км)
Погода в Presidencia Roque Saenz Pena (Аргентина) (226 км)
Погода в Prats-Gil (Парагвай) (241 км)
Погода в Formosa (Аргентина) (289 км)
Погода в Mariscal Estigar (Парагвай) (299 км)
Погода в Asuncion (Парагвай) (316 км)
Погода в Pilar (Парагвай) (330 км)
Погода в Resistencia (Аргентина) (342 км)
Погода в Corrientes (Аргентина) (356 км)

Пояснения к столбцам:

Ветер - указаны скорость ветра в м/с - средняя за 10 мин, порывы в срок и между сроками (в фигурных скобках) и направление, откуда дует ветер: С - северный, СВ - северо-восточный, В - восточный, ЮВ - юго-восточный, Ю - южный, ЮЗ - юго-западный, З - западный, СЗ - северо-западный.
Видимость - горизонтальная дальность видимости в метрах или километрах. При видимости от 1 до 10 км при отсутствии осадков обычно наблюдается дымка, при ухудшении видимости до 1 км и менее - туман. В сухую погоду видимость может ухудшаться дымом, пылью или мглою.
Явления - указаны атмосферные явления, наблюдавшиеся в срок или в последний час перед сроком; фигурными скобками обозначены явления, наблюдавшиеся между сроками (за 1-3 часа до срока); квадратными скобками обозначены град или гололедные отложения с указанием их диаметра в мм.
Облачность - указаны через наклонную черту общая и нижняя облачность в баллах и высота нижней границы облаков в метрах; квадратными скобками обозначены формы облаков: Ci - перистые, Cs - перисто-слоистые, Cc - перисто-кучевые, Ac - высококучевые, As - высокослоистые, Sc - слоисто-кучевые, Ns - слоисто-дождевые, Cu - кучевые, Cb - кучево-дождевые. Подробнее классификацию облаков см. в Атласе облаков (PDF).
T - Температура воздуха - температура, измеренная на высоте 2 м над землей.
Td - Температура точки росы - температура, при понижении до которой содержащийся в воздухе водяной пар достигнет насыщения.
f - Относительная влажность воздуха - влажноcть воздуха, измеренная на высоте 2 м над землей.
Te - Эффективная температура - температура, которую ощущает одетый по сезону человек в тени. Характеристика душности погоды. При расчете учитывается влияние влажности воздуха и скорости ветра на теплоощущения человека.
Tes - Эффективная температура на солнце - температура, которую ощущает человек, с поправкой на солнечный нагрев. Характеристика знойности погоды. Зависит от высоты солнца над горизонтом, облачности и скорости ветра. Ночью, в пасмурную погоду, а также при ветре 12 м/с и более поправка равна нулю.
P - Атмосферное давление - приведенное к уровню моря атмосферное давление.
Po - Атмосферное давление - измеренное на уровне метеостанции атмосферное давление.
Tmin - Минимальная температура - минимум температуры воздуха на высоте 2 м над землей.
Tmax - Максимальная температура - максимум температуры воздуха на высоте 2 м над землей.
R - Количество осадков - Количество выпавших осадков за период времени, мм. При наведении курсора мыши на число - период времени, за который выпало указанное количество осадков.
R24 - Количество осадков - Количество выпавших осадков за 24 часа, мм.
S - Снежный покров - Высота снежного покрова, см. При наведении курсора мыши на число - состояние снежного покрова и степень покрытия местности в баллах.